Nuiqsut, AK

11:02 PM AKDT on September 24, 2017 (GMT -0800)
Nuiqsut

Weather History for PAQT - September, 2013

Change the Weather History Date:

Thursday, September 19, 2013

  Actual Average (PAKU) Record (PAKU)
Temperature  
Mean Temperature 31 °F -  
Max Temperature 32 °F 34 °F 57 °F (1986)
Min Temperature 30 °F 27 °F 15 °F (1985)
Degree Days  
Heating Degree Days 34    
Moisture  
Dew Point 30 °F    
Average Humidity 98    
Maximum Humidity 100    
Minimum Humidity 92    
Precipitation  
Precipitation 0.12 in - - ()
Sea Level Pressure  
Sea Level Pressure 29.76 in    
Wind  
Wind Speed 11 mph (NNE)    
Max Wind Speed 17 mph    
Max Gust Speed 23 mph    
Visibility 4 miles    
Events Fog , Snow    
Averages and records for this station are not official NWS values.
T = Trace of Precipitation, MM = Missing Value Source: NWS Daily Summary

Daily Weather History Graph

Daily Weather History Graph

Search for Another Location

Airport or City:

Trip Planner

Search our weather history database for the weather conditions in past years. The results will help you decide how hot, cold, wet, or windy it might be!

Date:

Astronomy

Sep. 19, 2013 Rise Set
Actual Time 7:33 AM AKDT 8:19 PM AKDT
Civil Twilight 6:30 AM AKDT 9:21 PM AKDT
Nautical Twilight 5:07 AM AKDT 10:43 PM AKDT
Astronomical Twilight 2:46 AM AKDT 12:52 AM AKDT
Moon 7:31 PM AKDT (9/19) 8:30 AM AKDT (9/19)
Length of Visible Light 14h 50m
Length of Day
12h 45m
Full, 100% of the Moon is Illuminated
Sep 19
Full
Sep 26
Last Quarter
Oct 4
New
Oct 11
First Quarter
Oct 18
Full

Hourly Weather History & Observations

Time (AKDT) Temp. Windchill Dew Point Humidity Pressure Visibility Wind Dir Wind Speed Gust Speed Precip Events Conditions
12:53 AM 30.9 °F 21.7 °F 30.0 °F 96% 29.83 in 4.0 mi NE 11.5 mph - 0.00 in Snow Light Snow
1:53 AM 30.9 °F 19.4 °F 30.0 °F 96% 29.82 in 4.0 mi NE 17.3 mph 20.7 mph 0.00 in Snow Light Snow
2:53 AM 30.9 °F 19.8 °F 30.0 °F 96% 29.81 in 6.0 mi NE 16.1 mph - 0.00 in Snow Light Snow
3:11 AM 30.2 °F 18.9 °F 30.2 °F 100% 29.81 in 2.0 mi NE 16.1 mph - 0.00 in Snow Light Snow
3:51 AM 30.2 °F 18.9 °F 30.2 °F 100% 29.80 in 3.0 mi NE 16.1 mph - 0.00 in Snow Light Snow
3:53 AM 30.9 °F 20.2 °F 30.0 °F 96% 29.81 in 3.0 mi NE 15.0 mph - 0.00 in Snow Light Snow
4:26 AM 30.2 °F 18.5 °F 30.2 °F 100% 29.80 in 2.5 mi NE 17.3 mph - 0.00 in Snow Light Snow
4:43 AM 30.2 °F 18.9 °F 30.2 °F 100% 29.80 in 1.8 mi NE 16.1 mph - 0.00 in Snow Light Snow
4:51 AM 30.2 °F 18.5 °F 30.2 °F 100% 29.80 in 2.0 mi NE 17.3 mph - 0.00 in Snow Light Snow
4:53 AM 30.9 °F 19.4 °F 30.0 °F 96% 29.80 in 2.0 mi NE 17.3 mph - 0.00 in Snow Light Snow
5:07 AM 30.2 °F 19.3 °F 30.2 °F 100% 29.79 in 2.0 mi NE 15.0 mph 23.0 mph 0.00 in Snow Light Snow
5:17 AM 30.2 °F 18.5 °F 30.2 °F 100% 29.79 in 2.5 mi NE 17.3 mph - 0.00 in Snow Light Snow
5:39 AM 30.2 °F 18.9 °F 30.2 °F 100% 29.79 in 2.0 mi NE 16.1 mph - 0.00 in Snow Light Snow
5:53 AM 30.0 °F 18.7 °F 30.0 °F 100% 29.80 in 2.0 mi NE 16.1 mph - 0.00 in Snow Light Snow
6:23 AM 30.2 °F 20.2 °F 30.2 °F 100% 29.79 in 2.0 mi NE 12.7 mph - 0.00 in Snow Light Snow
6:53 AM 30.0 °F 19.5 °F 30.0 °F 100% 29.79 in 2.0 mi NE 13.8 mph - 0.00 in Snow Light Snow
7:42 AM 30.2 °F 20.8 °F 28.4 °F 93% 29.79 in 2.0 mi NE 11.5 mph - 0.00 in Snow Light Snow
7:51 AM 30.2 °F 21.3 °F 28.4 °F 93% 29.78 in 2.0 mi NNE 10.4 mph - 0.00 in Snow Light Snow
7:53 AM 30.0 °F 20.5 °F 28.9 °F 96% 29.79 in 2.5 mi NE 11.5 mph - 0.00 in Snow Light Snow
8:17 AM 30.2 °F 20.8 °F 28.4 °F 93% 29.78 in 1.2 mi NE 11.5 mph - 0.00 in Snow Light Snow
8:28 AM 30.2 °F 19.8 °F 28.4 °F 93% 29.78 in 1.2 mi NE 13.8 mph - 0.00 in Snow Light Snow
8:46 AM 30.2 °F 20.8 °F 28.4 °F 93% 29.78 in 2.5 mi NE 11.5 mph - 0.00 in Snow Light Snow
8:51 AM 30.2 °F 21.9 °F 28.4 °F 93% 29.78 in 3.0 mi NE 9.2 mph - 0.00 in Snow Light Snow
8:53 AM 30.0 °F 21.7 °F 28.9 °F 96% 29.78 in 3.0 mi NNE 9.2 mph - 0.00 in Snow Light Snow
9:02 AM 30.2 °F 21.9 °F 30.2 °F 100% 29.77 in 1.8 mi NNE 9.2 mph - 0.00 in Snow Light Snow
9:15 AM 30.2 °F 21.9 °F 30.2 °F 100% 29.77 in 0.8 mi NE 9.2 mph - 0.00 in Snow Light Snow
9:29 AM 30.2 °F 21.3 °F 30.2 °F 100% 29.77 in 1.0 mi NNE 10.4 mph - 0.00 in Snow Light Snow
9:37 AM 30.2 °F 21.9 °F 30.2 °F 100% 29.77 in 1.2 mi NNE 9.2 mph - 0.00 in Snow Light Snow
9:53 AM 30.0 °F 21.7 °F 30.0 °F 100% 29.77 in 1.8 mi NNE 9.2 mph - 0.00 in Snow Light Snow
10:42 AM 30.2 °F 20.8 °F 30.2 °F 100% 29.77 in 0.5 mi NNE 11.5 mph - 0.00 in Fog , Snow Snow
10:51 AM 30.2 °F 21.3 °F 30.2 °F 100% 29.77 in 1.2 mi NNE 10.4 mph - 0.00 in Snow Light Snow
10:53 AM 30.0 °F 21.7 °F 30.0 °F 100% 29.77 in 1.5 mi NNE 9.2 mph - 0.00 in Snow Light Snow
11:14 AM 30.2 °F 21.3 °F 30.2 °F 100% 29.76 in 0.8 mi NNE 10.4 mph - 0.00 in Snow Light Snow
11:19 AM 30.2 °F 20.8 °F 30.2 °F 100% 29.76 in 1.0 mi NNE 11.5 mph - 0.00 in Snow Light Snow
11:25 AM 30.2 °F 20.8 °F 30.2 °F 100% 29.76 in 1.5 mi NNE 11.5 mph - 0.00 in Snow Light Snow
11:37 AM 30.2 °F 21.9 °F 30.2 °F 100% 29.76 in 1.8 mi NNE 9.2 mph - 0.00 in Snow Light Snow
11:49 AM 30.2 °F 20.8 °F 30.2 °F 100% 29.76 in 3.0 mi NNE 11.5 mph - 0.00 in Snow Light Snow
11:53 AM 30.0 °F 20.0 °F 30.0 °F 100% 29.77 in 4.0 mi NNE 12.7 mph - 0.00 in Snow Light Snow
12:02 PM 30.2 °F 21.3 °F 30.2 °F 100% 29.76 in 2.5 mi NNE 10.4 mph - 0.00 in Snow Light Snow
12:11 PM 30.2 °F 21.9 °F 30.2 °F 100% 29.76 in 2.0 mi NNE 9.2 mph - 0.00 in Snow Light Snow
12:18 PM 30.2 °F 21.9 °F 30.2 °F 100% 29.76 in 2.0 mi NNE 9.2 mph - 0.00 in Snow Light Snow
12:22 PM 30.2 °F 21.9 °F 30.2 °F 100% 29.76 in 1.5 mi NNE 9.2 mph - 0.00 in Snow Light Snow
12:33 PM 30.2 °F 21.9 °F 30.2 °F 100% 29.76 in 1.0 mi NNE 9.2 mph - 0.00 in Snow Light Snow
12:53 PM 30.9 °F 23.5 °F 30.0 °F 96% 29.76 in 1.2 mi NNE 8.1 mph - 0.00 in Snow Light Snow
1:00 PM 30.2 °F 21.9 °F 30.2 °F 100% 29.76 in 1.5 mi NNE 9.2 mph - 0.00 in Snow Light Snow
1:46 PM 30.2 °F 21.3 °F 30.2 °F 100% 29.75 in 3.0 mi NNE 10.4 mph - 0.00 in Snow Light Snow
1:53 PM 30.9 °F 22.2 °F 30.0 °F 96% 29.75 in 4.0 mi NNE 10.4 mph - 0.00 in Snow Light Snow
2:53 PM 32.0 °F 26.4 °F 30.0 °F 92% 29.75 in 9.0 mi NNE 5.8 mph - 0.06 in   Overcast
3:17 PM 32.0 °F 26.4 °F 30.2 °F 93% 29.74 in 1.8 mi NNE 5.8 mph - 0.02 in Snow Light Snow
3:48 PM 30.2 °F 24.3 °F 30.2 °F 100% 29.74 in 1.5 mi NNE 5.8 mph - 0.03 in Snow Light Snow
3:51 PM 30.2 °F 24.3 °F 30.2 °F 100% 29.74 in 2.0 mi NNE 5.8 mph - 0.03 in Snow Light Snow
3:53 PM 30.9 °F 25.2 °F 30.0 °F 96% 29.75 in 2.5 mi NNE 5.8 mph - 0.03 in Snow Light Snow
4:03 PM 30.2 °F 24.3 °F 30.2 °F 100% 29.74 in 1.5 mi NNE 5.8 mph - 0.00 in Snow Light Snow
4:07 PM 30.2 °F 24.3 °F 30.2 °F 100% 29.74 in 2.5 mi NNE 5.8 mph - 0.02 in Snow Light Snow
4:10 PM 32.0 °F 27.5 °F 30.2 °F 93% 29.74 in 4.0 mi NNE 4.6 mph - 0.02 in Snow Light Snow
4:26 PM 30.2 °F 25.4 °F 30.2 °F 100% 29.74 in 3.0 mi North 4.6 mph - 0.02 in   Overcast
4:53 PM 30.9 °F 25.2 °F 30.0 °F 96% 29.73 in 10.0 mi North 5.8 mph - 0.03 in   Overcast
5:17 PM 32.0 °F 27.5 °F 30.2 °F 93% 29.73 in 10.0 mi NNE 4.6 mph - N/A   Overcast
5:40 PM 30.2 °F 25.4 °F 30.2 °F 100% 29.73 in 10.0 mi North 4.6 mph - N/A   Overcast
5:51 PM 30.2 °F 25.4 °F 30.2 °F 100% 29.73 in 10.0 mi North 4.6 mph - N/A   Overcast
5:53 PM 30.9 °F 26.2 °F 30.0 °F 96% 29.73 in 10.0 mi North 4.6 mph - N/A   Overcast
6:17 PM 30.2 °F 26.7 °F 30.2 °F 100% 29.73 in 10.0 mi North 3.5 mph - N/A   Overcast
6:29 PM 30.2 °F 25.4 °F 28.4 °F 93% 29.72 in 10.0 mi NNE 4.6 mph - N/A   Overcast
6:51 PM 30.2 °F 26.7 °F 28.4 °F 93% 29.73 in 10.0 mi North 3.5 mph - N/A   Overcast
6:53 PM 30.9 °F 27.5 °F 28.9 °F 92% 29.73 in 10.0 mi North 3.5 mph - N/A   Overcast
7:53 PM 30.0 °F - 28.9 °F 96% 29.72 in 10.0 mi Calm Calm - N/A   Overcast
8:53 PM 30.0 °F - 28.9 °F 96% 29.71 in 10.0 mi Calm Calm - N/A   Overcast
9:17 PM 30.2 °F - 28.4 °F 93% 29.71 in 10.0 mi Calm Calm - N/A   Overcast
9:53 PM 30.0 °F - 28.9 °F 96% 29.71 in 10.0 mi Calm Calm - N/A   Overcast
10:53 PM 30.0 °F - 28.9 °F 96% 29.70 in 10.0 mi Calm Calm - N/A   Overcast
11:53 PM 30.0 °F - 28.9 °F 96% 29.68 in 10.0 mi Calm Calm - N/A   Overcast